Time,TemperatureF,DewpointF,PressureIn,WindDirection,WindDirectionDegrees,WindSpeedMPH,WindSpeedGustMPH,Humidity,HourlyPrecipIn,Conditions,Clouds,dailyrainin,SolarRadiationWatts/m^2,SoftwareType,DateUTC
2013-05-24 00:00:00,41.0,34.0,-100.00,NNW,337,9.0,-999.0,78,-99.99,,,-99.99,0.000000,,2013-05-24 04:00:00,
2013-05-24 00:33:00,41.0,34.0,-100.00,NNW,337,9.0,-999.0,78,-99.99,,,-99.99,0.000000,,2013-05-24 04:33:00,
2013-05-24 00:42:00,41.0,34.0,-100.00,NNW,337,9.0,-999.0,78,-99.99,,,-99.99,0.000000,,2013-05-24 04:42:00,
2013-05-24 00:53:00,41.0,34.0,-100.00,NNW,337,9.0,-999.0,78,-99.99,,,-99.99,0.000000,,2013-05-24 04:53:00,
2013-05-24 01:00:00,39.0,34.0,-100.00,NNW,337,8.0,-999.0,82,-99.99,,,-99.99,0.000000,,2013-05-24 05:00:00,
2013-05-24 01:32:00,39.0,34.0,-100.00,NNW,337,8.0,-999.0,82,-99.99,,,-99.99,0.000000,,2013-05-24 05:32:00,
2013-05-24 01:42:00,39.0,34.0,-100.00,NNW,337,8.0,-999.0,82,-99.99,,,-99.99,0.000000,,2013-05-24 05:42:00,
2013-05-24 01:52:00,39.0,34.0,-100.00,NNW,337,8.0,-999.0,82,-99.99,,,-99.99,0.000000,,2013-05-24 05:52:00,
2013-05-24 02:00:00,38.0,34.0,-100.00,NW,315,7.0,-999.0,84,-99.99,,,-99.99,0.000000,,2013-05-24 06:00:00,
2013-05-24 02:32:00,38.0,34.0,-100.00,NW,315,7.0,-999.0,84,-99.99,,,-99.99,0.000000,,2013-05-24 06:32:00,
2013-05-24 02:42:00,38.0,34.0,-100.00,NW,315,7.0,-999.0,84,-99.99,,,-99.99,0.000000,,2013-05-24 06:42:00,
2013-05-24 02:52:00,38.0,34.0,-100.00,NW,315,7.0,-999.0,84,-99.99,,,-99.99,0.000000,,2013-05-24 06:52:00,
2013-05-24 03:00:00,38.0,34.0,-100.00,NW,315,6.0,-999.0,86,-99.99,,,-99.99,0.000000,,2013-05-24 07:00:00,
2013-05-24 03:32:00,38.0,34.0,-100.00,NW,315,6.0,-999.0,86,-99.99,,,-99.99,0.000000,,2013-05-24 07:32:00,
2013-05-24 03:42:00,38.0,34.0,-100.00,NW,315,6.0,-999.0,86,-99.99,,,-99.99,0.000000,,2013-05-24 07:42:00,
2013-05-24 03:52:00,38.0,34.0,-100.00,NW,315,6.0,-999.0,86,-99.99,,,-99.99,0.000000,,2013-05-24 07:52:00,
2013-05-24 04:00:00,37.0,34.0,-100.00,NW,315,6.0,-999.0,88,-99.99,,,-99.99,0.000000,,2013-05-24 08:00:00,
2013-05-24 04:33:00,37.0,34.0,-100.00,NW,315,6.0,-999.0,88,-99.99,,,-99.99,0.000000,,2013-05-24 08:33:00,
2013-05-24 04:42:00,37.0,34.0,-100.00,NW,315,6.0,-999.0,88,-99.99,,,-99.99,0.000000,,2013-05-24 08:42:00,
2013-05-24 04:52:00,37.0,34.0,-100.00,NW,315,6.0,-999.0,88,-99.99,,,-99.99,0.000000,,2013-05-24 08:52:00,
2013-05-24 05:00:00,37.0,34.0,-100.00,SW,225,6.0,-999.0,88,-99.99,,,-99.99,0.000000,,2013-05-24 09:00:00,
2013-05-24 05:33:00,37.0,34.0,-100.00,SW,225,6.0,-999.0,88,-99.99,,,-99.99,0.000000,,2013-05-24 09:33:00,
2013-05-24 05:42:00,37.0,34.0,-100.00,SW,225,6.0,-999.0,88,-99.99,,,-99.99,0.000000,,2013-05-24 09:42:00,
2013-05-24 05:53:00,37.0,34.0,-100.00,SW,225,6.0,-999.0,88,-99.99,,,-99.99,0.000000,,2013-05-24 09:53:00,
2013-05-24 06:00:00,36.0,33.0,-100.00,SW,225,5.0,-999.0,91,-99.99,,,-99.99,0.000000,,2013-05-24 10:00:00,
2013-05-24 06:33:00,36.0,33.0,-100.00,SW,225,5.0,-999.0,91,-99.99,,,-99.99,0.000000,,2013-05-24 10:33:00,
2013-05-24 06:42:00,36.0,33.0,-100.00,SW,225,5.0,-999.0,91,-99.99,,,-99.99,0.000000,,2013-05-24 10:42:00,
2013-05-24 06:53:00,36.0,33.0,-100.00,SW,225,5.0,-999.0,91,-99.99,,,-99.99,0.000000,,2013-05-24 10:53:00,
2013-05-24 07:00:00,35.0,34.0,-100.00,SW,225,5.0,-999.0,93,-99.99,,,-99.99,18.559999,,2013-05-24 11:00:00,
2013-05-24 07:32:00,35.0,34.0,-100.00,SW,225,5.0,-999.0,93,-99.99,,,-99.99,18.559999,,2013-05-24 11:32:00,
2013-05-24 07:42:00,35.0,34.0,-100.00,SW,225,5.0,-999.0,93,-99.99,,,-99.99,18.559999,,2013-05-24 11:42:00,
2013-05-24 07:52:00,35.0,34.0,-100.00,SW,225,5.0,-999.0,93,-99.99,,,-99.99,18.559999,,2013-05-24 11:52:00,
2013-05-24 08:00:00,39.0,35.0,-100.00,SSW,202,6.0,-999.0,85,-99.99,,,-99.99,200.679993,,2013-05-24 12:00:00,
2013-05-24 08:33:00,39.0,35.0,-100.00,SSW,202,6.0,-999.0,85,-99.99,,,-99.99,200.679993,,2013-05-24 12:33:00,
2013-05-24 08:42:00,39.0,35.0,-100.00,SSW,202,6.0,-999.0,85,-99.99,,,-99.99,200.679993,,2013-05-24 12:42:00,
2013-05-24 08:52:00,39.0,35.0,-100.00,SSW,202,6.0,-999.0,85,-99.99,,,-99.99,200.679993,,2013-05-24 12:52:00,
2013-05-24 09:00:00,41.0,34.0,-100.00,East,90,8.0,-999.0,74,-99.99,,,-99.99,378.160004,,2013-05-24 13:00:00,
2013-05-24 09:32:00,41.0,34.0,-100.00,East,90,8.0,-999.0,74,-99.99,,,-99.99,378.160004,,2013-05-24 13:32:00,
2013-05-24 09:42:00,41.0,34.0,-100.00,East,90,8.0,-999.0,74,-99.99,,,-99.99,378.160004,,2013-05-24 13:42:00,
2013-05-24 09:52:00,41.0,34.0,-100.00,East,90,8.0,-999.0,74,-99.99,,,-99.99,378.160004,,2013-05-24 13:52:00,
2013-05-24 10:00:00,43.0,34.0,-100.00,ESE,112,9.0,-999.0,70,-99.99,,,-99.99,541.719971,,2013-05-24 14:00:00,
2013-05-24 10:32:00,43.0,34.0,-100.00,ESE,112,9.0,-999.0,70,-99.99,,,-99.99,541.719971,,2013-05-24 14:32:00,
2013-05-24 10:42:00,43.0,34.0,-100.00,ESE,112,9.0,-999.0,70,-99.99,,,-99.99,541.719971,,2013-05-24 14:42:00,
2013-05-24 10:52:00,43.0,34.0,-100.00,ESE,112,9.0,-999.0,70,-99.99,,,-99.99,541.719971,,2013-05-24 14:52:00,
2013-05-24 11:00:00,46.0,36.0,-100.00,SSE,157,7.0,-999.0,68,-99.99,,,-99.99,618.280029,,2013-05-24 15:00:00,
2013-05-24 11:33:00,46.0,36.0,-100.00,SSE,157,7.0,-999.0,68,-99.99,,,-99.99,618.280029,,2013-05-24 15:33:00,
2013-05-24 11:43:00,46.0,36.0,-100.00,SSE,157,7.0,-999.0,68,-99.99,,,-99.99,618.280029,,2013-05-24 15:43:00,
2013-05-24 11:53:00,46.0,36.0,-100.00,SSE,157,7.0,-999.0,68,-99.99,,,-99.99,618.280029,,2013-05-24 15:53:00,
2013-05-24 12:00:00,49.0,37.0,-100.00,South,180,5.0,-999.0,62,-99.99,,,-99.99,766.760010,,2013-05-24 16:00:00,
2013-05-24 12:33:00,49.0,37.0,-100.00,South,180,5.0,-999.0,62,-99.99,,,-99.99,766.760010,,2013-05-24 16:33:00,
2013-05-24 12:42:00,49.0,37.0,-100.00,South,180,5.0,-999.0,62,-99.99,,,-99.99,766.760010,,2013-05-24 16:42:00,
2013-05-24 12:52:00,49.0,37.0,-100.00,South,180,5.0,-999.0,62,-99.99,,,-99.99,766.760010,,2013-05-24 16:52:00,
2013-05-24 13:00:00,51.0,38.0,-100.00,South,180,6.0,-999.0,61,-99.99,,,-99.99,850.280029,,2013-05-24 17:00:00,
2013-05-24 13:32:00,51.0,38.0,-100.00,South,180,6.0,-999.0,61,-99.99,,,-99.99,850.280029,,2013-05-24 17:32:00,
2013-05-24 13:42:00,51.0,38.0,-100.00,South,180,6.0,-999.0,61,-99.99,,,-99.99,850.280029,,2013-05-24 17:42:00,
2013-05-24 13:52:00,51.0,38.0,-100.00,South,180,6.0,-999.0,61,-99.99,,,-99.99,850.280029,,2013-05-24 17:52:00,
2013-05-24 14:00:00,53.0,38.0,-100.00,WSW,247,4.0,-999.0,57,-99.99,,,-99.99,858.400024,,2013-05-24 18:00:00,
2013-05-24 14:32:00,53.0,38.0,-100.00,WSW,247,4.0,-999.0,57,-99.99,,,-99.99,858.400024,,2013-05-24 18:32:00,
2013-05-24 14:42:00,53.0,38.0,-100.00,WSW,247,4.0,-999.0,57,-99.99,,,-99.99,858.400024,,2013-05-24 18:42:00,
2013-05-24 14:52:00,53.0,38.0,-100.00,WSW,247,4.0,-999.0,57,-99.99,,,-99.99,858.400024,,2013-05-24 18:52:00,
2013-05-24 15:00:00,56.0,40.0,-100.00,WSW,247,5.0,-999.0,55,-99.99,,,-99.99,794.599976,,2013-05-24 19:00:00,
2013-05-24 15:32:00,56.0,40.0,-100.00,WSW,247,5.0,-999.0,55,-99.99,,,-99.99,794.599976,,2013-05-24 19:32:00,
2013-05-24 15:42:00,56.0,40.0,-100.00,WSW,247,5.0,-999.0,55,-99.99,,,-99.99,794.599976,,2013-05-24 19:42:00,
2013-05-24 15:52:00,56.0,40.0,-100.00,WSW,247,5.0,-999.0,55,-99.99,,,-99.99,794.599976,,2013-05-24 19:52:00,
2013-05-24 16:00:00,58.0,39.0,-100.00,SW,225,4.0,-999.0,50,-99.99,,,-99.99,745.880005,,2013-05-24 20:00:00,
2013-05-24 16:32:00,58.0,39.0,-100.00,SW,225,4.0,-999.0,50,-99.99,,,-99.99,745.880005,,2013-05-24 20:32:00,
2013-05-24 16:42:00,58.0,39.0,-100.00,SW,225,4.0,-999.0,50,-99.99,,,-99.99,745.880005,,2013-05-24 20:42:00,
2013-05-24 16:52:00,58.0,39.0,-100.00,SW,225,4.0,-999.0,50,-99.99,,,-99.99,745.880005,,2013-05-24 20:52:00,
2013-05-24 17:00:00,59.0,36.0,-100.00,West,270,5.0,-999.0,41,-99.99,,,-99.99,651.919983,,2013-05-24 21:00:00,
2013-05-24 17:33:00,59.0,36.0,-100.00,West,270,5.0,-999.0,41,-99.99,,,-99.99,651.919983,,2013-05-24 21:33:00,
2013-05-24 17:43:00,59.0,36.0,-100.00,West,270,5.0,-999.0,41,-99.99,,,-99.99,651.919983,,2013-05-24 21:43:00,
2013-05-24 17:53:00,59.0,36.0,-100.00,West,270,5.0,-999.0,41,-99.99,,,-99.99,651.919983,,2013-05-24 21:53:00,
2013-05-24 18:00:00,61.0,35.0,-100.00,South,180,6.0,-999.0,38,-99.99,,,-99.99,510.399994,,2013-05-24 22:00:00,
2013-05-24 18:33:00,61.0,35.0,-100.00,South,180,6.0,-999.0,38,-99.99,,,-99.99,510.399994,,2013-05-24 22:33:00,
2013-05-24 18:42:00,61.0,35.0,-100.00,South,180,6.0,-999.0,38,-99.99,,,-99.99,510.399994,,2013-05-24 22:42:00,
2013-05-24 18:52:00,61.0,35.0,-100.00,South,180,6.0,-999.0,38,-99.99,,,-99.99,510.399994,,2013-05-24 22:52:00,
2013-05-24 19:00:00,63.0,34.0,-100.00,South,180,4.0,-999.0,34,-99.99,,,-99.99,349.160004,,2013-05-24 23:00:00,
2013-05-24 19:32:00,63.0,34.0,-100.00,South,180,4.0,-999.0,34,-99.99,,,-99.99,349.160004,,2013-05-24 23:32:00,
2013-05-24 19:42:00,63.0,34.0,-100.00,South,180,4.0,-999.0,34,-99.99,,,-99.99,349.160004,,2013-05-24 23:42:00,
2013-05-24 19:52:00,63.0,34.0,-100.00,South,180,4.0,-999.0,34,-99.99,,,-99.99,349.160004,,2013-05-24 23:52:00,
2013-05-24 20:00:00,62.0,33.0,-100.00,WNW,292,2.0,-999.0,33,-99.99,,,-99.99,185.600006,,2013-05-25 00:00:00,
2013-05-24 20:32:00,62.0,33.0,-100.00,WNW,292,2.0,-999.0,33,-99.99,,,-99.99,185.600006,,2013-05-25 00:32:00,
2013-05-24 20:42:00,62.0,33.0,-100.00,WNW,292,2.0,-999.0,33,-99.99,,,-99.99,185.600006,,2013-05-25 00:42:00,
2013-05-24 20:52:00,62.0,33.0,-100.00,WNW,292,2.0,-999.0,33,-99.99,,,-99.99,185.600006,,2013-05-25 00:52:00,
2013-05-24 21:00:00,58.0,40.0,-100.00,NNW,337,0.0,-999.0,50,-99.99,,,-99.99,33.639999,,2013-05-25 01:00:00,
2013-05-24 21:32:00,58.0,40.0,-100.00,NNW,337,0.0,-999.0,50,-99.99,,,-99.99,33.639999,,2013-05-25 01:32:00,
2013-05-24 21:42:00,58.0,40.0,-100.00,NNW,337,0.0,-999.0,50,-99.99,,,-99.99,33.639999,,2013-05-25 01:42:00,
2013-05-24 21:52:00,58.0,40.0,-100.00,NNW,337,0.0,-999.0,50,-99.99,,,-99.99,33.639999,,2013-05-25 01:52:00,
2013-05-24 22:00:00,50.0,43.0,-100.00,West,270,1.0,-999.0,74,-99.99,,,-99.99,1.160000,,2013-05-25 02:00:00,
2013-05-24 22:32:00,50.0,43.0,-100.00,West,270,1.0,-999.0,74,-99.99,,,-99.99,1.160000,,2013-05-25 02:32:00,
2013-05-24 22:42:00,50.0,43.0,-100.00,West,270,1.0,-999.0,74,-99.99,,,-99.99,1.160000,,2013-05-25 02:42:00,
2013-05-24 22:52:00,50.0,43.0,-100.00,West,270,1.0,-999.0,74,-99.99,,,-99.99,1.160000,,2013-05-25 02:52:00,
2013-05-24 23:00:00,50.0,40.0,-100.00,WSW,247,2.0,-999.0,67,-99.99,,,-99.99,0.000000,,2013-05-25 03:00:00,
2013-05-24 23:33:00,50.0,40.0,-100.00,WSW,247,2.0,-999.0,67,-99.99,,,-99.99,0.000000,,2013-05-25 03:33:00,
2013-05-24 23:43:00,50.0,40.0,-100.00,WSW,247,2.0,-999.0,67,-99.99,,,-99.99,0.000000,,2013-05-25 03:43:00,
2013-05-24 23:53:00,50.0,40.0,-100.00,WSW,247,2.0,-999.0,67,-99.99,,,-99.99,0.000000,,2013-05-25 03:53:00,